SCP
0 0 0 0 0 0 0 0 0 0 0 -0 0 0 0 0 0 0 0 0 0 0 0 0 0 0 0 0 0 0 0 0 0 0 0 0 0 0 0 0 0 0 0 0
0 0 0 0 0 0 0 0 0 0 0 0 0 0 0 0 0 0 0 0 0 0 0 0 0 0 0 0 0 0 0 0 0 0 0 0 0 0 0 0 0 0 0 0
0 0 0 0 0 0 0 0 0 0 0 0 0 0 0 0 0 0 0 0 0 0 0 0 0 0 0 0 0 0 0 0 0 0 0 0 0 0 0 0 0 0 0 0
0 0 0 0 0 0 0 0 0 0 0 0 0 0 0 0 0 0 0 0 0 0 0 0 0 0 0 0 0 0 0 0 0 0 0 0 0 0 0 0 0 0 0 0
0 0 0 0 0 0 0 0 0 0 0 0 0 0 0 0 0 0 0 0 0 0 0 0 0 0 0 0 0 0 0 0 0 0 0 0 0 0 0 0 0 0 0 0
-0 -0 0 0 0 0 0 0 0 0 0 0 0 0 0 0 0 0 0 0 0 0 0 0 0 0 0 0 0 0 0 0 0 0 0 0 0 0 0 0 0 0 0 0
0 0 0 0 0 0 0 0 0 0 0 0 0 0 0 0 0 0 0 0 0 0 0 0 0 0 0 0 0 0 0 0 0 0 0 0 0 0 0 0 0 0 0 0
0 0 0 0 0 0 0 0 0 0 0 0 0 0 0 0 0 0 0 0 0 0 0 0 0 0 0 0 0 0 0 0 0 0 0 0 0 0 0 0 0 0 0 0
0 0 0 0 0 0 0 0 0 0 0 0 0 0 0 0 0 0 0 0 0 0 0 0 0 0 0 0 0 0 0 0 0 0 0 0 0 0 0 0 0 0 0 0
0 0 0 0 0 0 0 0 0 0 0 0 0 0 0 0 0 0 0 0 0 0 0 0 0 0 0 0 0 0 0 0 0 0 0 0 0 0 0 0 0 0 0 0
0 0 0 0 0 0 0 0 0 0 0 0 0 0 0 0 0 0 0 0 0 0 0 0 0 0 0 0 0 0 0 0 0 0 0 0 0 0 0 0 0 0 0 0
0 0 0 0 0 -0 -0 0 -0 0 0 0 0 0 0 0 0 0 0 0 0 0 0 0 0 0 0 0 0 0 0 0 0 0 0 0 0 0 0 0 0 0 0 0
0 0 0 0 0 -0 0 0 0 0 0 0 0 0 0 0 0 0 0 0 0 0 0 0 0 0 0 0 0 0 0 0 0 0 0 0 0 0 0 0 0 0 0 0
0 0 0 -0 0 0 0 0 0 0 0 0 0 0 0 0 0 0 0 0 0 0 0 0 0 0 0 0 0 0 0 0 0 0 0 0 0 0 0 0 0 0 0 0
0 0 0 0 0 0 0 0 0 0 0 0 0 0 0 0 0 0 0 0 0 0 0 0 0 0 0 0 0 0 0 0 0 0 0 0 0 0 0 0 0 0 0 0
0 0 0 0 0 0 0 0 0 0 0 0 0 0 0 0 0 0 0 0 0 0 0 0 0 0 0 0 0 0 0 0 0 0 0 0 0 0 0 0 0 0 0 0
0 0 0 0 0 0 0 0 0 0 0 0 0 0 0 0 0 0 0 0 0 0 0 0 0 0 0 0 0 0 0 0 0 0 0 0 0 0 0 0 0 0 0 0
0 0 0 0 0 0 0 0 0 0 0 0 0 0 0 0 0 0 0 0 0 0 0 0 0 0 0 0 0 0 0 0 0 0 0 0 0 0 0 0 0 0 0 0
0 0 0 0 0 0 0 0 0 0 0 0 0 0 0 0 0 0 0 0 0 0 0 0 0 0 0 0 0 0 0 0 0 0 0 0 0 0 0 0 0 0 0 0
0 0 0 0 0 0 0 0 0 0 0 0 0 0 0 0 0 0 0 0 0 0 0 0 0 0 0 0 0 0 0 0 0 0 0 0 0 0 0 0 0 0 0 0
0 0 0 0 0 0 0 0 0 0 0 0 0 0 0 0 0 0 0 0 0 0 0 0 0 0 0 0 0 0 0 0 0 0 0 0 0 0 0 0 0 0 0 0
0 0 0 0 0 0 0 0 0 0 0 0 0 0 0 0 0 0 0 0 0 0 0 0 0 0 0 0 0 0 0 0 0 0 0 0 0 0 0 0 0 0 0 0
0 0 0 0 0 0 0 0 0 0 0 0 0 0 0 0 0 0 0 0 0 0 0 0 0 0 0 0 0 0 0 0 0 0 0 0 0 0 0 0 0 0 0 0
0 0 0 0 0 0 0 0 0 0 0 0 0 0 0 0 0 0 0 0 0 0 0 0 0 0 0 0 0 0 0 0 0 0 0 0 0 0 0 0 0 0 0 0
0 0 0 0 0 0 0 0 0 0 0 0 0 0 0 0 0 0 0 0 0 0 0 0 0 0 0 0 0 0 0 0 0 0 0 0 0 0 0 0 0 0 0 0
0 0 0 0 0 0 0 0 0 0 0 0 0 0 0 0 0 0 0 0 0 0 0 0 0 0 0 0 0 0 0 0 0 0 0 0 0 0 0 0 0 0 0 0
0 0 0 0 0 0 0 0 0 0 0 0 0 0 0 0 0 0 0 0 0 0 0 0 0 0 0 0 0 0 0 0 0 0 0 0 0 0 0 0 0 0 0 0
Wind_Speed_500mb
39 21 6 9 12 28 35 50 24 62 36 62 24 20 43 66 70 76 73 58 56 57 67 60 48 40 44 47 50 58 69 77 78 70 75 75 74 74 74 75 80 83 91 93
41 42 41 37 18 21 41 43 40 58 52 58 51 49 34 55 74 79 81 82 71 68 72 68 53 53 51 56 59 63 70 78 79 74 80 82 79 78 78 79 83 89 96 98
41 41 26 21 50 55 43 35 42 37 63 39 36 28 41 64 76 78 78 85 88 78 78 72 70 63 65 66 66 68 70 75 80 81 84 85 82 80 84 85 85 94 100 98
23 18 29 31 35 45 51 54 50 49 59 53 49 43 50 85 73 84 85 86 90 85 86 80 69 68 69 72 68 68 71 75 79 83 85 86 83 81 84 84 86 95 100 97
9 12 18 19 16 15 22 47 43 48 58 69 74 39 75 87 80 89 85 78 72 64 59 57 59 61 62 65 64 66 69 72 76 80 84 85 84 82 83 82 85 93 96 92
18 23 24 17 16 19 14 29 21 45 50 54 19 13 35 41 36 34 33 36 37 33 37 43 45 49 51 51 55 59 60 61 65 70 76 79 79 80 81 79 84 86 83 80
30 27 11 12 3 2 15 13 7 22 44 22 14 30 39 33 40 46 47 49 51 49 45 38 34 35 38 37 39 40 41 42 47 52 59 66 70 71 71 72 67 69 74 74
12 12 18 23 9 17 12 5 9 11 16 23 28 28 35 40 36 32 39 41 33 29 27 23 20 20 22 23 24 27 28 29 31 36 43 52 55 57 56 52 55 60 65 65
12 7 7 22 23 37 16 17 10 19 27 29 25 24 24 26 23 18 20 23 20 17 15 15 16 16 13 17 18 21 23 24 25 27 30 37 42 45 41 45 48 51 55 59
6 7 10 40 41 37 21 24 42 32 31 34 32 23 20 20 18 12 10 10 7 8 14 21 25 28 26 28 28 24 24 24 22 24 28 30 32 35 41 46 51 56 63 70
9 14 32 43 32 35 30 31 36 34 28 26 24 21 18 16 15 8 10 15 16 17 24 30 33 36 36 33 29 28 26 26 25 24 27 32 36 37 41 42 46 52 56 54
10 18 18 30 15 28 40 40 33 30 23 20 18 15 13 11 12 11 15 19 18 22 26 31 31 32 34 34 29 22 26 27 26 25 25 23 24 27 29 31 34 39 41 46
25 32 30 45 52 40 33 30 30 25 19 16 11 8 9 10 13 14 19 22 25 27 32 35 34 36 36 35 34 29 23 24 23 21 19 20 21 22 23 28 34 34 36 41
45 39 27 40 27 27 26 23 22 17 17 21 26 22 15 16 20 23 28 30 31 32 35 37 38 40 38 33 29 27 25 23 20 18 16 15 15 16 18 21 24 26 31 35
45 45 54 44 39 33 27 22 26 29 24 21 20 25 24 26 31 34 37 37 40 39 36 32 31 33 32 29 23 22 19 18 17 14 12 11 11 13 16 19 23 26 25 26
43 45 42 42 42 39 31 29 29 23 17 17 20 26 30 32 36 40 42 39 35 37 34 28 23 24 22 19 16 13 12 10 9 9 8 10 11 14 17 20 24 26 28 31
30 30 31 33 32 28 25 22 21 19 16 22 25 29 34 38 38 38 36 37 31 28 27 24 19 17 14 10 9 7 6 6 7 8 10 12 14 15 17 20 23 26 30 33
32 31 26 26 26 25 23 22 23 27 30 36 36 34 31 30 36 42 40 35 29 24 22 20 17 13 9 7 4 3 2 4 6 8 10 12 14 17 19 21 24 27 30 34
24 26 25 23 23 25 25 28 34 34 32 32 35 40 38 39 40 39 36 33 29 24 22 19 16 12 8 5 2 1 3 6 10 13 14 16 18 20 22 24 27 30 33 37
18 19 18 18 20 23 25 26 29 31 34 36 38 41 42 40 37 35 33 28 25 22 21 16 13 9 7 4 2 2 4 7 10 12 14 18 21 23 26 28 30 32 34 36
18 20 21 21 23 25 28 32 33 36 39 37 36 41 40 40 37 32 28 26 25 21 18 14 11 5 3 4 6 8 9 11 13 15 18 20 23 25 27 29 31 33 35 37
18 23 26 28 28 31 32 33 32 38 40 39 38 39 38 38 34 32 30 24 25 21 15 10 5 4 4 5 7 10 12 14 17 19 21 23 26 29 33 35 37 40 42 43
19 24 30 34 35 38 41 42 43 40 41 39 39 39 37 39 36 27 26 24 19 13 9 4 1 4 7 10 13 15 18 20 23 25 28 30 33 36 39 40 42 44 45 46
25 30 34 40 43 44 48 48 45 45 44 42 41 38 33 28 28 25 21 17 12 7 2 3 7 10 14 17 20 23 26 28 31 33 35 37 39 41 43 44 46 46 48 49
36 41 44 45 45 46 47 46 45 43 39 36 33 29 24 20 16 17 12 7 3 5 9 13 16 20 22 26 29 31 34 37 39 41 43 44 44 46 48 49 50 51 51 51
41 43 44 43 44 42 39 34 36 36 30 26 24 22 18 15 11 8 5 6 10 13 17 21 24 28 31 34 37 39 41 43 45 47 49 50 52 53 54 55 56 57 58 58
40 40 40 41 39 35 31 28 25 26 22 18 13 12 9 7 6 8 11 15 19 22 25 28 32 36 39 42 45 47 49 51 53 56 57 60 61 62 63 64 65 65 66 66
Wind_Direction_500mb
245 244 180 233 210 198 210 232 226 250 242 258 247 241 263 274 286 290 285 273 273 287 292 292 268 261 255 254 250 242 230 229 232 229 221 225 229 232 232 230 225 219 214 213
245 238 235 238 224 229 225 229 238 251 258 259 258 260 243 254 256 263 270 274 279 279 284 279 272 269 263 256 250 243 234 232 234 230 222 226 227 229 234 231 224 217 214 214
239 235 230 237 229 230 233 228 220 235 243 255 263 239 245 257 257 259 264 271 277 280 283 282 283 266 272 261 253 246 238 235 234 232 227 228 229 230 233 232 226 217 213 214
251 239 228 234 243 224 225 234 227 241 255 252 252 268 263 260 262 269 273 278 280 280 281 278 271 265 264 259 254 248 241 236 234 233 232 230 231 232 235 232 227 218 214 212
256 267 273 303 245 177 188 245 236 234 250 259 261 273 272 269 271 274 279 282 280 279 276 271 265 261 258 254 250 243 240 237 234 233 232 231 230 231 234 232 225 220 216 213
226 239 255 272 275 209 132 248 216 215 238 248 234 234 262 272 271 272 271 278 279 278 282 276 265 257 255 251 247 243 241 239 236 234 233 233 231 232 232 230 225 220 218 217
231 238 228 226 190 269 171 244 203 216 237 236 192 229 256 265 272 275 276 273 277 280 277 272 259 249 245 240 238 241 240 239 237 234 233 231 230 229 230 226 220 221 224 222
203 242 268 189 125 168 218 235 266 268 258 242 248 253 258 268 275 273 275 282 281 270 263 254 242 238 233 228 222 221 221 219 220 223 223 226 226 226 226 222 220 219 222 222
207 230 251 206 247 212 199 302 276 251 279 285 282 275 277 283 290 285 276 273 268 251 236 209 189 175 184 176 177 179 179 182 186 194 204 213 216 215 208 212 216 219 225 221
20 332 344 324 295 279 284 268 281 290 289 284 286 291 288 283 280 274 255 236 219 204 175 161 145 137 133 135 134 141 147 150 157 170 177 188 194 202 212 216 214 213 219 229
267 275 311 307 328 293 305 284 286 286 282 280 281 282 281 278 268 238 184 172 159 161 154 142 134 133 130 128 129 136 140 141 148 160 177 189 200 210 216 224 232 237 238 238
256 278 264 272 255 305 311 328 299 278 273 268 261 262 256 238 234 212 173 161 156 157 151 136 134 132 131 129 130 138 139 138 142 151 158 171 186 194 203 214 226 232 238 243
241 263 262 285 303 313 312 313 291 270 257 248 235 229 211 181 164 145 139 137 145 144 137 133 135 133 127 126 124 125 132 137 143 150 162 174 184 195 205 210 223 232 236 241
250 251 269 280 279 288 286 284 264 245 227 243 256 241 217 182 160 152 143 140 138 134 134 132 130 126 122 121 119 123 129 132 134 140 150 162 175 191 209 221 232 240 240 244
237 249 259 256 266 275 277 258 236 236 231 228 214 201 178 160 149 141 138 140 143 137 129 128 132 128 125 123 125 126 131 135 138 145 157 173 193 211 225 233 239 243 247 252
232 233 243 250 252 252 247 235 228 225 202 169 166 155 154 155 151 150 152 146 147 145 136 134 134 131 131 134 136 140 142 148 156 172 194 212 225 232 239 241 245 246 248 251
238 245 254 259 257 246 236 222 213 195 171 173 167 154 150 148 143 144 154 156 158 152 147 147 149 148 150 149 159 161 165 201 220 230 236 242 245 246 248 250 252 253 254 254
234 241 250 249 246 235 215 199 188 172 170 155 163 168 170 171 169 161 158 156 157 157 155 156 152 143 138 149 156 154 187 247 254 251 256 257 259 260 257 255 253 251 251 251
232 233 233 232 228 216 205 193 184 182 177 174 174 169 168 163 159 157 156 155 154 153 143 139 137 137 143 140 145 174 252 263 264 258 256 256 255 255 254 252 252 253 254 256
216 219 214 206 198 188 185 181 176 174 164 163 165 161 158 151 147 149 147 154 150 147 141 141 138 138 145 154 168 240 252 261 269 278 282 279 276 273 271 268 266 265 264 264
195 192 187 179 174 165 161 159 159 160 151 152 159 157 155 149 145 142 149 151 141 137 134 129 119 111 70 18 349 328 309 293 290 289 288 287 286 283 279 275 271 269 267 268
174 174 168 165 165 160 151 148 150 151 145 147 150 146 145 141 141 144 141 138 129 122 115 105 86 40 353 318 300 298 300 302 301 299 295 290 285 281 278 277 276 276 276 276
175 162 156 151 150 147 142 139 140 140 139 136 133 130 134 130 126 126 129 121 115 112 111 116 225 285 297 307 309 308 305 302 299 296 292 289 286 283 281 281 280 280 279 278
145 142 143 137 135 133 130 125 127 126 127 125 121 118 115 117 121 119 117 118 123 133 160 281 301 304 304 304 304 304 303 302 300 299 296 294 292 290 288 287 285 284 282 281
131 130 129 129 132 125 122 121 120 117 118 117 114 114 114 112 112 108 101 92 48 340 323 316 313 312 310 308 306 305 304 303 301 299 298 296 295 292 291 289 288 286 283 282
125 125 124 125 121 118 115 119 117 111 108 109 110 106 101 97 89 74 40 347 325 318 314 312 310 310 309 308 307 305 304 303 301 300 298 297 294 292 291 289 288 286 285 283
122 120 120 119 116 114 114 112 111 112 110 106 98 91 76 50 14 345 329 320 316 313 312 311 310 308 306 304 302 301 300 298 297 295 294 293 292 292 291 290 288 286 284 282
Wind_Speed_850mb
39 21 6 9 12 28 35 50 24 62 36 62 24 20 43 66 70 76 73 58 56 57 67 60 48 40 44 47 50 58 69 77 78 70 75 75 74 74 74 75 80 83 91 93
41 42 41 37 18 21 41 43 40 58 52 58 51 49 34 55 74 79 81 82 71 68 72 68 53 53 51 56 59 63 70 78 79 74 80 82 79 78 78 79 83 89 96 98
41 41 26 21 50 55 43 35 42 37 63 39 36 28 41 64 76 78 78 85 88 78 78 72 70 63 65 66 66 68 70 75 80 81 84 85 82 80 84 85 85 94 100 98
23 18 29 31 35 45 51 54 50 49 59 53 49 43 50 85 73 84 85 86 90 85 86 80 69 68 69 72 68 68 71 75 79 83 85 86 83 81 84 84 86 95 100 97
9 12 18 19 16 15 22 47 43 48 58 69 74 39 75 87 80 89 85 78 72 64 59 57 59 61 62 65 64 66 69 72 76 80 84 85 84 82 83 82 85 93 96 92
18 23 24 17 16 19 14 29 21 45 50 54 19 13 35 41 36 34 33 36 37 33 37 43 45 49 51 51 55 59 60 61 65 70 76 79 79 80 81 79 84 86 83 80
30 27 11 12 3 2 15 13 7 22 44 22 14 30 39 33 40 46 47 49 51 49 45 38 34 35 38 37 39 40 41 42 47 52 59 66 70 71 71 72 67 69 74 74
12 12 18 23 9 17 12 5 9 11 16 23 28 28 35 40 36 32 39 41 33 29 27 23 20 20 22 23 24 27 28 29 31 36 43 52 55 57 56 52 55 60 65 65
12 7 7 22 23 37 16 17 10 19 27 29 25 24 24 26 23 18 20 23 20 17 15 15 16 16 13 17 18 21 23 24 25 27 30 37 42 45 41 45 48 51 55 59
6 7 10 40 41 37 21 24 42 32 31 34 32 23 20 20 18 12 10 10 7 8 14 21 25 28 26 28 28 24 24 24 22 24 28 30 32 35 41 46 51 56 63 70
9 14 32 43 32 35 30 31 36 34 28 26 24 21 18 16 15 8 10 15 16 17 24 30 33 36 36 33 29 28 26 26 25 24 27 32 36 37 41 42 46 52 56 54
10 18 18 30 15 28 40 40 33 30 23 20 18 15 13 11 12 11 15 19 18 22 26 31 31 32 34 34 29 22 26 27 26 25 25 23 24 27 29 31 34 39 41 46
25 32 30 45 52 40 33 30 30 25 19 16 11 8 9 10 13 14 19 22 25 27 32 35 34 36 36 35 34 29 23 24 23 21 19 20 21 22 23 28 34 34 36 41
45 39 27 40 27 27 26 23 22 17 17 21 26 22 15 16 20 23 28 30 31 32 35 37 38 40 38 33 29 27 25 23 20 18 16 15 15 16 18 21 24 26 31 35
45 45 54 44 39 33 27 22 26 29 24 21 20 25 24 26 31 34 37 37 40 39 36 32 31 33 32 29 23 22 19 18 17 14 12 11 11 13 16 19 23 26 25 26
43 45 42 42 42 39 31 29 29 23 17 17 20 26 30 32 36 40 42 39 35 37 34 28 23 24 22 19 16 13 12 10 9 9 8 10 11 14 17 20 24 26 28 31
30 30 31 33 32 28 25 22 21 19 16 22 25 29 34 38 38 38 36 37 31 28 27 24 19 17 14 10 9 7 6 6 7 8 10 12 14 15 17 20 23 26 30 33
32 31 26 26 26 25 23 22 23 27 30 36 36 34 31 30 36 42 40 35 29 24 22 20 17 13 9 7 4 3 2 4 6 8 10 12 14 17 19 21 24 27 30 34
24 26 25 23 23 25 25 28 34 34 32 32 35 40 38 39 40 39 36 33 29 24 22 19 16 12 8 5 2 1 3 6 10 13 14 16 18 20 22 24 27 30 33 37
18 19 18 18 20 23 25 26 29 31 34 36 38 41 42 40 37 35 33 28 25 22 21 16 13 9 7 4 2 2 4 7 10 12 14 18 21 23 26 28 30 32 34 36
18 20 21 21 23 25 28 32 33 36 39 37 36 41 40 40 37 32 28 26 25 21 18 14 11 5 3 4 6 8 9 11 13 15 18 20 23 25 27 29 31 33 35 37
18 23 26 28 28 31 32 33 32 38 40 39 38 39 38 38 34 32 30 24 25 21 15 10 5 4 4 5 7 10 12 14 17 19 21 23 26 29 33 35 37 40 42 43
19 24 30 34 35 38 41 42 43 40 41 39 39 39 37 39 36 27 26 24 19 13 9 4 1 4 7 10 13 15 18 20 23 25 28 30 33 36 39 40 42 44 45 46
25 30 34 40 43 44 48 48 45 45 44 42 41 38 33 28 28 25 21 17 12 7 2 3 7 10 14 17 20 23 26 28 31 33 35 37 39 41 43 44 46 46 48 49
36 41 44 45 45 46 47 46 45 43 39 36 33 29 24 20 16 17 12 7 3 5 9 13 16 20 22 26 29 31 34 37 39 41 43 44 44 46 48 49 50 51 51 51
41 43 44 43 44 42 39 34 36 36 30 26 24 22 18 15 11 8 5 6 10 13 17 21 24 28 31 34 37 39 41 43 45 47 49 50 52 53 54 55 56 57 58 58
40 40 40 41 39 35 31 28 25 26 22 18 13 12 9 7 6 8 11 15 19 22 25 28 32 36 39 42 45 47 49 51 53 56 57 60 61 62 63 64 65 65 66 66
Wind_Direction_850mb
245 244 180 233 210 198 210 232 226 250 242 258 247 241 263 274 286 290 285 273 273 287 292 292 268 261 255 254 250 242 230 229 232 229 221 225 229 232 232 230 225 219 214 213
245 238 235 238 224 229 225 229 238 251 258 259 258 260 243 254 256 263 270 274 279 279 284 279 272 269 263 256 250 243 234 232 234 230 222 226 227 229 234 231 224 217 214 214
239 235 230 237 229 230 233 228 220 235 243 255 263 239 245 257 257 259 264 271 277 280 283 282 283 266 272 261 253 246 238 235 234 232 227 228 229 230 233 232 226 217 213 214
251 239 228 234 243 224 225 234 227 241 255 252 252 268 263 260 262 269 273 278 280 280 281 278 271 265 264 259 254 248 241 236 234 233 232 230 231 232 235 232 227 218 214 212
256 267 273 303 245 177 188 245 236 234 250 259 261 273 272 269 271 274 279 282 280 279 276 271 265 261 258 254 250 243 240 237 234 233 232 231 230 231 234 232 225 220 216 213
226 239 255 272 275 209 132 248 216 215 238 248 234 234 262 272 271 272 271 278 279 278 282 276 265 257 255 251 247 243 241 239 236 234 233 233 231 232 232 230 225 220 218 217
231 238 228 226 190 269 171 244 203 216 237 236 192 229 256 265 272 275 276 273 277 280 277 272 259 249 245 240 238 241 240 239 237 234 233 231 230 229 230 226 220 221 224 222
203 242 268 189 125 168 218 235 266 268 258 242 248 253 258 268 275 273 275 282 281 270 263 254 242 238 233 228 222 221 221 219 220 223 223 226 226 226 226 222 220 219 222 222
207 230 251 206 247 212 199 302 276 251 279 285 282 275 277 283 290 285 276 273 268 251 236 209 189 175 184 176 177 179 179 182 186 194 204 213 216 215 208 212 216 219 225 221
20 332 344 324 295 279 284 268 281 290 289 284 286 291 288 283 280 274 255 236 219 204 175 161 145 137 133 135 134 141 147 150 157 170 177 188 194 202 212 216 214 213 219 229
267 275 311 307 328 293 305 284 286 286 282 280 281 282 281 278 268 238 184 172 159 161 154 142 134 133 130 128 129 136 140 141 148 160 177 189 200 210 216 224 232 237 238 238
256 278 264 272 255 305 311 328 299 278 273 268 261 262 256 238 234 212 173 161 156 157 151 136 134 132 131 129 130 138 139 138 142 151 158 171 186 194 203 214 226 232 238 243
241 263 262 285 303 313 312 313 291 270 257 248 235 229 211 181 164 145 139 137 145 144 137 133 135 133 127 126 124 125 132 137 143 150 162 174 184 195 205 210 223 232 236 241
250 251 269 280 279 288 286 284 264 245 227 243 256 241 217 182 160 152 143 140 138 134 134 132 130 126 122 121 119 123 129 132 134 140 150 162 175 191 209 221 232 240 240 244
237 249 259 256 266 275 277 258 236 236 231 228 214 201 178 160 149 141 138 140 143 137 129 128 132 128 125 123 125 126 131 135 138 145 157 173 193 211 225 233 239 243 247 252
232 233 243 250 252 252 247 235 228 225 202 169 166 155 154 155 151 150 152 146 147 145 136 134 134 131 131 134 136 140 142 148 156 172 194 212 225 232 239 241 245 246 248 251
238 245 254 259 257 246 236 222 213 195 171 173 167 154 150 148 143 144 154 156 158 152 147 147 149 148 150 149 159 161 165 201 220 230 236 242 245 246 248 250 252 253 254 254
234 241 250 249 246 235 215 199 188 172 170 155 163 168 170 171 169 161 158 156 157 157 155 156 152 143 138 149 156 154 187 247 254 251 256 257 259 260 257 255 253 251 251 251
232 233 233 232 228 216 205 193 184 182 177 174 174 169 168 163 159 157 156 155 154 153 143 139 137 137 143 140 145 174 252 263 264 258 256 256 255 255 254 252 252 253 254 256
216 219 214 206 198 188 185 181 176 174 164 163 165 161 158 151 147 149 147 154 150 147 141 141 138 138 145 154 168 240 252 261 269 278 282 279 276 273 271 268 266 265 264 264
195 192 187 179 174 165 161 159 159 160 151 152 159 157 155 149 145 142 149 151 141 137 134 129 119 111 70 18 349 328 309 293 290 289 288 287 286 283 279 275 271 269 267 268
174 174 168 165 165 160 151 148 150 151 145 147 150 146 145 141 141 144 141 138 129 122 115 105 86 40 353 318 300 298 300 302 301 299 295 290 285 281 278 277 276 276 276 276
175 162 156 151 150 147 142 139 140 140 139 136 133 130 134 130 126 126 129 121 115 112 111 116 225 285 297 307 309 308 305 302 299 296 292 289 286 283 281 281 280 280 279 278
145 142 143 137 135 133 130 125 127 126 127 125 121 118 115 117 121 119 117 118 123 133 160 281 301 304 304 304 304 304 303 302 300 299 296 294 292 290 288 287 285 284 282 281
131 130 129 129 132 125 122 121 120 117 118 117 114 114 114 112 112 108 101 92 48 340 323 316 313 312 310 308 306 305 304 303 301 299 298 296 295 292 291 289 288 286 283 282
125 125 124 125 121 118 115 119 117 111 108 109 110 106 101 97 89 74 40 347 325 318 314 312 310 310 309 308 307 305 304 303 301 300 298 297 294 292 291 289 288 286 285 283
122 120 120 119 116 114 114 112 111 112 110 106 98 91 76 50 14 345 329 320 316 313 312 311 310 308 306 304 302 301 300 298 297 295 294 293 292 292 291 290 288 286 284 282